Lid_Strength_Index
13 16 16 15 10 9 7 6 7 8 6 6 7 4 4 1 0 0 0 -0 -0 -1 -1 -1 -1 -1 -1 -1 -1 -1 -1 -1
14 15 13 12 9 7 7 6 6 6 8 5 3 4 2 1 0 0 0 -0 -0 -1 -1 -1 -1 -1 -1 -1 -1 -1 -1 -1
16 15 13 11 7 7 8 7 7 6 8 7 3 2 1 1 0 1 0 -0 -0 -1 -1 -1 -1 -1 -1 -1 -1 -1 -1 -1
17 15 12 9 7 7 7 6 6 7 8 7 3 2 2 1 1 0 0 -0 -0 -1 -1 -1 -1 -1 -1 -1 -1 -1 -1 -1
17 16 13 11 6 8 7 7 6 5 8 7 4 2 1 1 0 0 0 0 -0 -0 -1 -1 -1 -1 -1 -1 -1 -1 -1 -1
16 15 14 9 8 7 7 7 4 4 9 9 4 2 2 1 1 1 1 0 1 -0 -0 -0 -0 -1 -1 -1 -1 -1 -1 -1
15 14 13 8 10 10 5 6 5 5 5 4 2 3 4 3 2 2 2 1 1 -0 -0 0 -0 -1 -1 -1 -1 -1 -1 -1
13 12 12 12 11 11 8 7 6 6 4 3 3 4 5 4 4 3 2 2 1 1 0 0 -0 0 0 -0 -0 -0 -0 -1
11 10 10 11 11 10 10 8 6 7 6 4 4 4 4 3 3 3 2 1 1 1 0 0 0 0 0 -0 -0 -0 -1 1
11 10 12 11 11 11 11 9 5 4 4 4 5 5 5 4 4 3 2 1 1 0 0 0 -0 -0 -0 -0 1 3 4 5
9 10 11 11 11 11 11 8 8 4 4 5 4 4 5 4 4 2 2 2 1 0 1 0 0 0 0 1 3 5 4 3
10 11 11 11 11 11 9 8 9 5 5 5 4 4 5 4 5 3 2 2 1 1 1 1 0 1 1 1 6 4 3 3
11 10 12 10 11 11 9 9 5 6 5 5 4 4 4 4 5 3 3 2 2 1 0 0 1 1 2 6 5 4 2 2
12 11 10 10 14 10 7 7 7 6 6 5 5 4 3 3 3 2 3 2 2 1 0 1 2 3 5 6 5 3 2 2
13 11 10 10 14 10 7 5 7 7 6 6 5 4 3 3 3 3 2 2 1 2 2 3 4 5 7 6 5 3 3 3
15 12 12 13 12 10 6 7 8 7 6 6 6 5 3 3 2 3 2 2 2 3 4 6 6 7 8 7 4 3 3 2
14 11 13 12 13 11 8 8 6 7 6 8 7 5 4 3 3 4 3 3 4 5 7 7 7 8 8 7 3 3 3 2
13 12 12 13 13 12 10 9 7 6 6 6 8 5 4 3 5 5 5 4 4 5 7 7 6 5 5 5 3 3 3 3
14 12 13 14 14 12 10 10 9 6 5 5 6 6 5 4 5 5 5 5 5 6 7 8 6 4 4 4 4 4 4 3
12 14 17 13 18 14 12 11 10 8 6 6 5 5 5 4 5 5 4 4 5 7 8 8 6 3 3 3 3 4 4 3